Location: Góry Miechowskie
(50.3599°N, 20.1803°E)
Time: 15:27:11
(UTC+00:00)

A-11 Canister half - Pass Details

Date: 20 September 2024
Orbit: 1515 x 1684 km, 47.2° (Epoch: 07 October)

Event Time Altitude Azimuth Distance (km) Brightness Sun altitude
Rises 22:46:27 0° 287° (WNW) 4,668 11.7 -38.9°
Reaches altitude 10° 22:50:09 10° 276° (W) 3,678 11.0 -38.9°
Enters shadow 22:50:51 12° 272° (W) 3,510 10.8 -38.9°
Maximum altitude 22:57:08 25° 226° (SW) 2,687 - -38.8°
Drops below altitude 10° 23:04:11 10° 175° (S) 3,695 - -38.6°
Sets 23:07:56 0° 163° (SSE) 4,693 - -38.5°
